Time,TemperatureF,DewpointF,PressureIn,WindDirection,WindDirectionDegrees,WindSpeedMPH,WindSpeedGustMPH,Humidity,HourlyPrecipIn,Conditions,Clouds,dailyrainin,SoftwareType,DateUTC
2013-11-13 00:00:00,21.9,16.7,30.67,WSW,257,0.0,0.0,80,0.00,,,0.01,Wunderground v.1.15,2013-11-13 06:00:00,
2013-11-13 00:05:00,21.9,16.7,30.66,WSW,257,0.0,0.0,80,0.00,,,0.00,Wunderground v.1.15,2013-11-13 06:05:00,
2013-11-13 00:15:00,21.9,16.7,30.66,WSW,257,0.0,0.0,80,0.00,,,0.00,Wunderground v.1.15,2013-11-13 06:15:00,
2013-11-13 00:20:00,21.9,17.0,30.66,WSW,257,0.0,0.0,81,0.00,,,0.00,Wunderground v.1.15,2013-11-13 06:20:00,
2013-11-13 00:30:00,22.1,17.2,30.66,WSW,257,1.0,1.0,81,0.00,,,0.00,Wunderground v.1.15,2013-11-13 06:30:00,
2013-11-13 00:40:00,22.3,17.1,30.66,WSW,257,1.0,1.0,80,0.00,,,0.00,Wunderground v.1.15,2013-11-13 06:40:00,
2013-11-13 00:45:00,22.3,17.1,30.66,WSW,257,0.0,1.0,80,0.00,,,0.00,Wunderground v.1.15,2013-11-13 06:45:00,
2013-11-13 00:55:00,22.1,17.2,30.66,WSW,257,0.0,0.0,81,0.00,,,0.00,Wunderground v.1.15,2013-11-13 06:55:00,
2013-11-13 01:00:00,22.0,17.1,30.65,WSW,257,0.0,0.0,81,0.00,,,0.00,Wunderground v.1.15,2013-11-13 07:00:00,
2013-11-13 01:10:00,21.7,16.8,30.66,WSW,257,0.0,0.0,81,0.00,,,0.00,Wunderground v.1.15,2013-11-13 07:10:00,
2013-11-13 01:20:00,21.5,16.6,30.66,WSW,257,0.0,0.0,81,0.00,,,0.00,Wunderground v.1.15,2013-11-13 07:20:00,
2013-11-13 01:25:00,21.3,16.7,30.66,WSW,257,0.0,0.0,82,0.00,,,0.00,Wunderground v.1.15,2013-11-13 07:25:00,
2013-11-13 01:35:00,21.0,16.4,30.66,WSW,257,0.0,0.0,82,0.00,,,0.00,Wunderground v.1.15,2013-11-13 07:35:00,
2013-11-13 01:40:00,20.8,16.5,30.66,WSW,257,0.0,0.0,83,0.00,,,0.00,Wunderground v.1.15,2013-11-13 07:40:00,
2013-11-13 01:50:00,20.6,16.5,30.66,WSW,257,0.0,0.0,84,0.00,,,0.00,Wunderground v.1.15,2013-11-13 07:50:00,
2013-11-13 02:00:00,20.4,16.6,30.65,WSW,257,0.0,0.0,85,0.00,,,0.00,Wunderground v.1.15,2013-11-13 08:00:00,
2013-11-13 02:10:00,20.3,16.5,30.66,WSW,257,0.0,0.0,85,0.00,,,0.00,Wunderground v.1.15,2013-11-13 08:10:00,
2013-11-13 02:15:00,20.3,16.8,30.66,WSW,257,0.0,0.0,86,0.00,,,0.00,Wunderground v.1.15,2013-11-13 08:15:00,
2013-11-13 02:25:00,20.4,16.9,30.65,WSW,257,0.0,1.0,86,0.00,,,0.00,Wunderground v.1.15,2013-11-13 08:25:00,
2013-11-13 02:30:00,20.5,17.0,30.65,WSW,257,0.0,1.0,86,0.00,,,0.00,Wunderground v.1.15,2013-11-13 08:30:00,
2013-11-13 02:40:00,20.6,16.8,30.65,WSW,257,0.0,1.0,85,0.00,,,0.00,Wunderground v.1.15,2013-11-13 08:40:00,
2013-11-13 02:50:00,20.7,16.9,30.65,WSW,257,1.0,4.0,85,0.00,,,0.00,Wunderground v.1.15,2013-11-13 08:50:00,
2013-11-13 03:00:00,20.9,17.1,30.65,WSW,257,1.0,1.0,85,0.00,,,0.00,Wunderground v.1.15,2013-11-13 09:00:00,
2013-11-13 03:10:00,20.9,16.8,30.65,WSW,257,1.0,1.0,84,0.00,,,0.00,Wunderground v.1.15,2013-11-13 09:10:00,
2013-11-13 03:15:00,20.9,16.8,30.65,WSW,257,2.0,2.0,84,0.00,,,0.00,Wunderground v.1.15,2013-11-13 09:15:00,
2013-11-13 03:25:00,20.8,16.7,30.65,WSW,257,1.0,2.0,84,0.00,,,0.00,Wunderground v.1.15,2013-11-13 09:25:00,
2013-11-13 03:35:00,20.7,16.6,30.65,WSW,257,1.0,1.0,84,0.00,,,0.00,Wunderground v.1.15,2013-11-13 09:35:00,
2013-11-13 03:40:00,20.6,16.5,30.64,WSW,257,1.0,1.0,84,0.00,,,0.00,Wunderground v.1.15,2013-11-13 09:40:00,
2013-11-13 03:50:00,20.6,16.5,30.64,WSW,257,1.0,1.0,84,0.00,,,0.00,Wunderground v.1.15,2013-11-13 09:50:00,
2013-11-13 03:55:00,20.5,16.4,30.64,WSW,257,0.0,1.0,84,0.00,,,0.00,Wunderground v.1.15,2013-11-13 09:55:00,
2013-11-13 04:05:00,20.4,16.3,30.64,WSW,257,1.0,1.0,84,0.00,,,0.00,Wunderground v.1.15,2013-11-13 10:05:00,
2013-11-13 04:10:00,20.4,16.3,30.64,WSW,257,0.0,2.0,84,0.00,,,0.00,Wunderground v.1.15,2013-11-13 10:10:00,
2013-11-13 04:20:00,20.3,16.2,30.64,WSW,257,0.0,0.0,84,0.00,,,0.00,Wunderground v.1.15,2013-11-13 10:20:00,
2013-11-13 04:30:00,20.2,16.1,30.64,WSW,257,1.0,1.0,84,0.00,,,0.00,Wunderground v.1.15,2013-11-13 10:30:00,
2013-11-13 04:35:00,20.3,16.2,30.64,WSW,257,1.0,1.0,84,0.00,,,0.00,Wunderground v.1.15,2013-11-13 10:35:00,
2013-11-13 04:45:00,20.4,16.3,30.63,WSW,257,1.0,1.0,84,0.00,,,0.00,Wunderground v.1.15,2013-11-13 10:45:00,
2013-11-13 04:55:00,20.6,16.5,30.63,WSW,257,1.0,4.0,84,0.00,,,0.00,Wunderground v.1.15,2013-11-13 10:55:00,
2013-11-13 05:00:00,20.6,16.5,30.63,WSW,257,2.0,4.0,84,0.00,,,0.00,Wunderground v.1.15,2013-11-13 11:00:00,
2013-11-13 05:10:00,20.7,16.6,30.63,WSW,257,1.0,1.0,84,0.00,,,0.00,Wunderground v.1.15,2013-11-13 11:10:00,
2013-11-13 05:20:00,20.7,16.4,30.63,WSW,257,0.0,0.0,83,0.00,,,0.00,Wunderground v.1.15,2013-11-13 11:20:00,
2013-11-13 05:25:00,20.7,16.4,30.63,WSW,257,0.0,0.0,83,0.00,,,0.00,Wunderground v.1.15,2013-11-13 11:25:00,
2013-11-13 05:35:00,20.6,16.5,30.62,WSW,257,1.0,1.0,84,0.00,,,0.00,Wunderground v.1.15,2013-11-13 11:35:00,
2013-11-13 05:40:00,20.7,16.6,30.62,WSW,257,1.0,1.0,84,0.00,,,0.00,Wunderground v.1.15,2013-11-13 11:40:00,
2013-11-13 05:50:00,20.9,16.8,30.62,WSW,257,1.0,1.0,84,0.00,,,0.00,Wunderground v.1.15,2013-11-13 11:50:00,
2013-11-13 06:00:00,21.0,16.9,30.62,WSW,257,1.0,1.0,84,0.00,,,0.00,Wunderground v.1.15,2013-11-13 12:00:00,
2013-11-13 06:05:00,21.1,16.7,30.62,WSW,257,1.0,2.0,83,0.00,,,0.00,Wunderground v.1.15,2013-11-13 12:05:00,
2013-11-13 06:15:00,21.4,17.0,30.62,WSW,237,2.0,3.0,83,0.00,,,0.00,Wunderground v.1.15,2013-11-13 12:15:00,
2013-11-13 06:20:00,21.7,17.1,30.62,West,259,2.0,2.0,82,0.00,,,0.00,Wunderground v.1.15,2013-11-13 12:20:00,
2013-11-13 06:30:00,21.8,16.9,30.61,SW,236,2.0,2.0,81,0.00,,,0.00,Wunderground v.1.15,2013-11-13 12:30:00,
2013-11-13 06:35:00,21.9,17.0,30.61,SW,227,2.0,4.0,81,0.00,,,0.00,Wunderground v.1.15,2013-11-13 12:35:00,
2013-11-13 06:45:00,21.9,17.2,30.61,SSW,213,2.0,2.0,82,0.00,,,0.00,Wunderground v.1.15,2013-11-13 12:45:00,
2013-11-13 06:55:00,22.0,17.3,30.61,West,261,2.0,4.0,82,0.00,,,0.00,Wunderground v.1.15,2013-11-13 12:55:00,
2013-11-13 07:00:00,22.1,17.4,30.61,West,259,3.0,3.0,82,0.00,,,0.00,Wunderground v.1.15,2013-11-13 13:00:00,
2013-11-13 07:10:00,22.5,17.5,30.61,WSW,256,3.0,4.0,81,0.00,,,0.00,Wunderground v.1.15,2013-11-13 13:10:00,
2013-11-13 07:20:00,23.0,17.7,30.61,SW,234,3.0,3.0,80,0.00,,,0.00,Wunderground v.1.15,2013-11-13 13:20:00,
2013-11-13 07:30:00,23.5,17.9,30.61,West,259,3.0,3.0,79,0.00,,,0.00,Wunderground v.1.15,2013-11-13 13:30:00,
2013-11-13 07:35:00,23.8,17.9,30.61,WSW,240,4.0,5.0,78,0.00,,,0.00,Wunderground v.1.15,2013-11-13 13:35:00,
2013-11-13 07:45:00,24.4,18.2,30.60,West,271,3.0,4.0,77,0.00,,,0.00,Wunderground v.1.15,2013-11-13 13:45:00,
2013-11-13 07:55:00,24.9,18.4,30.61,WSW,252,3.0,3.0,76,0.00,,,0.00,Wunderground v.1.15,2013-11-13 13:55:00,
2013-11-13 08:00:00,25.3,18.8,30.61,West,260,3.0,3.0,76,0.00,,,0.00,Wunderground v.1.15,2013-11-13 14:00:00,
2013-11-13 08:10:00,25.9,18.7,30.61,WSW,257,3.0,3.0,74,0.00,,,0.00,Wunderground v.1.15,2013-11-13 14:10:00,
2013-11-13 08:20:00,26.5,19.0,30.61,West,267,4.0,4.0,73,0.00,,,0.00,Wunderground v.1.15,2013-11-13 14:20:00,
2013-11-13 08:25:00,26.8,19.0,30.61,SW,219,4.0,8.0,72,0.00,,,0.00,Wunderground v.1.15,2013-11-13 14:25:00,
2013-11-13 08:35:00,27.4,18.9,30.61,SW,234,5.0,5.0,70,0.00,,,0.00,Wunderground v.1.15,2013-11-13 14:35:00,
2013-11-13 08:40:00,27.7,19.2,30.60,SW,215,4.0,4.0,70,0.00,,,0.00,Wunderground v.1.15,2013-11-13 14:40:00,
2013-11-13 08:50:00,28.6,19.0,30.60,WSW,239,5.0,5.0,67,0.00,,,0.00,Wunderground v.1.15,2013-11-13 14:50:00,
2013-11-13 09:00:00,29.3,19.3,30.59,West,262,4.0,6.0,66,0.00,,,0.00,Wunderground v.1.15,2013-11-13 15:00:00,
2013-11-13 09:05:00,29.7,19.7,30.59,SSW,201,4.0,9.0,66,0.00,,,0.00,Wunderground v.1.15,2013-11-13 15:05:00,
2013-11-13 09:15:00,30.3,19.9,30.59,West,264,4.0,6.0,65,0.00,,,0.00,Wunderground v.1.15,2013-11-13 15:15:00,
2013-11-13 09:20:00,30.5,20.1,30.58,South,169,5.0,5.0,65,0.00,,,0.00,Wunderground v.1.15,2013-11-13 15:20:00,
2013-11-13 09:30:00,31.1,20.7,30.58,WSW,253,5.0,5.0,65,0.00,,,0.00,Wunderground v.1.15,2013-11-13 15:30:00,
2013-11-13 09:35:00,31.4,20.6,30.58,SW,222,5.0,7.0,64,0.00,,,0.00,Wunderground v.1.15,2013-11-13 15:35:00,
2013-11-13 09:45:00,31.6,20.8,30.58,SW,234,5.0,7.0,64,0.00,,,0.00,Wunderground v.1.15,2013-11-13 15:45:00,
2013-11-13 09:55:00,32.6,21.0,30.57,SW,215,4.0,4.0,62,0.00,,,0.00,Wunderground v.1.15,2013-11-13 15:55:00,
2013-11-13 10:00:00,33.3,21.7,30.57,SW,223,4.0,4.0,62,0.00,,,0.00,Wunderground v.1.15,2013-11-13 16:00:00,
2013-11-13 10:10:00,33.7,20.9,30.56,SW,231,5.0,5.0,59,0.00,,,0.00,Wunderground v.1.15,2013-11-13 16:10:00,
2013-11-13 10:20:00,34.3,20.6,30.55,WSW,255,5.0,5.0,57,0.00,,,0.00,Wunderground v.1.15,2013-11-13 16:20:00,
2013-11-13 10:25:00,34.4,20.7,30.55,SW,215,5.0,5.0,57,0.00,,,0.00,Wunderground v.1.15,2013-11-13 16:25:00,
2013-11-13 10:35:00,35.0,20.0,30.54,West,265,6.0,10.0,54,0.00,,,0.00,Wunderground v.1.15,2013-11-13 16:35:00,
2013-11-13 10:40:00,35.3,20.7,30.54,WSW,240,6.0,6.0,55,0.00,,,0.00,Wunderground v.1.15,2013-11-13 16:40:00,
2013-11-13 10:50:00,36.1,20.6,30.53,SW,227,5.0,5.0,53,0.00,,,0.00,Wunderground v.1.15,2013-11-13 16:50:00,
2013-11-13 10:55:00,36.2,19.3,30.53,SW,233,6.0,9.0,50,0.00,,,0.00,Wunderground v.1.15,2013-11-13 16:55:00,
2013-11-13 11:05:00,36.8,19.4,30.52,SW,227,6.0,6.0,49,0.00,,,0.00,Wunderground v.1.15,2013-11-13 17:05:00,
2013-11-13 11:10:00,36.9,19.0,30.52,SW,223,6.0,7.0,48,0.00,,,0.00,Wunderground v.1.15,2013-11-13 17:10:00,
2013-11-13 11:20:00,37.5,18.6,30.51,WSW,250,5.0,5.0,46,0.00,,,0.00,Wunderground v.1.15,2013-11-13 17:20:00,
2013-11-13 11:30:00,38.2,19.2,30.50,WSW,258,5.0,7.0,46,0.00,,,0.00,Wunderground v.1.15,2013-11-13 17:30:00,
2013-11-13 11:35:00,38.6,20.6,30.50,SSW,213,5.0,7.0,48,0.00,,,0.00,Wunderground v.1.15,2013-11-13 17:35:00,
2013-11-13 11:45:00,38.8,19.2,30.49,SSW,205,6.0,6.0,45,0.00,,,0.00,Wunderground v.1.15,2013-11-13 17:45:00,
2013-11-13 11:50:00,39.3,19.7,30.48,SW,234,5.0,7.0,45,0.00,,,0.00,Wunderground v.1.15,2013-11-13 17:50:00,
2013-11-13 12:00:00,39.4,19.8,30.48,West,263,6.0,6.0,45,0.00,,,0.00,Wunderground v.1.15,2013-11-13 18:00:00,
2013-11-13 12:05:00,39.5,20.9,30.47,SW,216,6.0,6.0,47,0.00,,,0.00,Wunderground v.1.15,2013-11-13 18:05:00,
2013-11-13 12:15:00,39.4,20.3,30.46,SW,221,6.0,6.0,46,0.00,,,0.00,Wunderground v.1.15,2013-11-13 18:15:00,
2013-11-13 12:25:00,39.9,20.3,30.46,WSW,258,6.0,6.0,45,0.00,,,0.00,Wunderground v.1.15,2013-11-13 18:25:00,
2013-11-13 12:30:00,40.3,20.1,30.45,SW,226,5.0,5.0,44,0.00,,,0.00,Wunderground v.1.15,2013-11-13 18:30:00,
2013-11-13 12:40:00,40.2,19.5,30.45,WSW,246,6.0,6.0,43,0.00,,,0.00,Wunderground v.1.15,2013-11-13 18:40:00,
2013-11-13 12:45:00,40.1,19.4,30.45,WSW,252,6.0,6.0,43,0.00,,,0.00,Wunderground v.1.15,2013-11-13 18:45:00,
2013-11-13 12:55:00,40.6,18.7,30.44,SSW,202,5.0,9.0,41,0.00,,,0.00,Wunderground v.1.15,2013-11-13 18:55:00,
2013-11-13 13:05:00,41.4,18.9,30.43,West,262,6.0,11.0,40,0.00,,,0.00,Wunderground v.1.15,2013-11-13 19:05:00,
2013-11-13 13:10:00,41.6,19.0,30.43,WSW,255,7.0,7.0,40,0.00,,,0.00,Wunderground v.1.15,2013-11-13 19:10:00,
2013-11-13 13:20:00,41.6,19.0,30.42,WSW,240,6.0,6.0,40,0.00,,,0.00,Wunderground v.1.15,2013-11-13 19:20:00,
2013-11-13 13:25:00,42.0,18.8,30.42,SSW,209,5.0,6.0,39,0.00,,,0.00,Wunderground v.1.15,2013-11-13 19:25:00,
2013-11-13 13:35:00,42.5,18.6,30.41,WSW,246,5.0,7.0,38,0.00,,,0.00,Wunderground v.1.15,2013-11-13 19:35:00,
2013-11-13 13:40:00,42.5,18.6,30.41,WSW,255,5.0,5.0,38,0.00,,,0.00,Wunderground v.1.15,2013-11-13 19:40:00,
2013-11-13 13:50:00,42.8,18.3,30.40,WSW,238,4.0,6.0,37,0.00,,,0.00,Wunderground v.1.15,2013-11-13 19:50:00,
2013-11-13 14:00:00,42.9,19.0,30.39,SW,225,5.0,7.0,38,0.00,,,0.00,Wunderground v.1.15,2013-11-13 20:00:00,
2013-11-13 14:05:00,42.8,18.9,30.39,SSW,199,5.0,13.0,38,0.00,,,0.00,Wunderground v.1.15,2013-11-13 20:05:00,
2013-11-13 14:15:00,42.9,17.7,30.39,SSW,207,5.0,5.0,36,0.00,,,0.00,Wunderground v.1.15,2013-11-13 20:15:00,
2013-11-13 14:20:00,43.1,19.2,30.39,South,175,5.0,5.0,38,0.00,,,0.00,Wunderground v.1.15,2013-11-13 20:20:00,
2013-11-13 14:30:00,42.8,17.0,30.38,South,190,6.0,8.0,35,0.00,,,0.00,Wunderground v.1.15,2013-11-13 20:30:00,
2013-11-13 14:40:00,42.5,17.4,30.38,SSW,200,5.0,5.0,36,0.00,,,0.00,Wunderground v.1.15,2013-11-13 20:40:00,
2013-11-13 14:45:00,42.3,17.2,30.38,SSW,210,6.0,6.0,36,0.00,,,0.00,Wunderground v.1.15,2013-11-13 20:45:00,
2013-11-13 14:55:00,42.0,17.6,30.38,WNW,288,5.0,8.0,37,0.00,,,0.00,Wunderground v.1.15,2013-11-13 20:55:00,
2013-11-13 15:00:00,41.9,17.5,30.37,South,176,5.0,5.0,37,0.00,,,0.00,Wunderground v.1.15,2013-11-13 21:00:00,
2013-11-13 15:10:00,41.8,17.4,30.37,SSE,167,5.0,5.0,37,0.00,,,0.00,Wunderground v.1.15,2013-11-13 21:10:00,
2013-11-13 15:15:00,41.9,18.1,30.37,SW,220,5.0,9.0,38,0.00,,,0.00,Wunderground v.1.15,2013-11-13 21:15:00,
2013-11-13 15:25:00,41.6,17.2,30.37,SW,225,6.0,8.0,37,0.00,,,0.00,Wunderground v.1.15,2013-11-13 21:25:00,
2013-11-13 15:35:00,41.5,17.1,30.36,SW,229,5.0,5.0,37,0.00,,,0.00,Wunderground v.1.15,2013-11-13 21:35:00,
2013-11-13 15:40:00,41.3,17.6,30.36,West,259,6.0,6.0,38,0.00,,,0.00,Wunderground v.1.15,2013-11-13 21:40:00,
2013-11-13 15:50:00,41.0,18.5,30.36,SW,227,5.0,5.0,40,0.00,,,0.00,Wunderground v.1.15,2013-11-13 21:50:00,
2013-11-13 15:55:00,40.9,19.0,30.36,SW,216,5.0,7.0,41,0.00,,,0.00,Wunderground v.1.15,2013-11-13 21:55:00,
2013-11-13 16:05:00,40.5,20.8,30.35,SW,223,4.0,4.0,45,0.00,,,0.00,Wunderground v.1.15,2013-11-13 22:05:00,
2013-11-13 16:15:00,39.9,21.8,30.35,SSW,210,3.0,4.0,48,0.00,,,0.00,Wunderground v.1.15,2013-11-13 22:15:00,
2013-11-13 16:25:00,39.2,23.0,30.35,SSW,200,3.0,3.0,52,0.00,,,0.00,Wunderground v.1.15,2013-11-13 22:25:00,
2013-11-13 16:30:00,38.9,23.2,30.34,SSW,204,3.0,5.0,53,0.00,,,0.00,Wunderground v.1.15,2013-11-13 22:30:00,
2013-11-13 16:40:00,38.3,23.1,30.34,SW,231,3.0,5.0,54,0.00,,,0.00,Wunderground v.1.15,2013-11-13 22:40:00,
2013-11-13 16:45:00,38.0,23.3,30.34,SSW,213,3.0,6.0,55,0.00,,,0.00,Wunderground v.1.15,2013-11-13 22:45:00,
2013-11-13 16:55:00,37.5,23.2,30.33,SW,223,3.0,5.0,56,0.00,,,0.00,Wunderground v.1.15,2013-11-13 22:55:00,
2013-11-13 17:00:00,37.4,23.1,30.33,SW,227,4.0,4.0,56,0.00,,,0.00,Wunderground v.1.15,2013-11-13 23:00:00,
2013-11-13 17:10:00,37.0,23.2,30.33,SSE,167,3.0,6.0,57,0.00,,,0.00,Wunderground v.1.15,2013-11-13 23:10:00,
2013-11-13 17:15:00,36.8,23.4,30.33,WSW,242,3.0,7.0,58,0.00,,,0.00,Wunderground v.1.15,2013-11-13 23:15:00,
2013-11-13 17:25:00,36.4,23.0,30.33,SSW,211,3.0,7.0,58,0.00,,,0.00,Wunderground v.1.15,2013-11-13 23:25:00,
2013-11-13 17:30:00,36.3,22.9,30.33,SW,220,3.0,3.0,58,0.00,,,0.00,Wunderground v.1.15,2013-11-13 23:30:00,
2013-11-13 17:40:00,36.0,23.0,30.32,SW,219,3.0,3.0,59,0.00,,,0.00,Wunderground v.1.15,2013-11-13 23:40:00,
2013-11-13 17:50:00,36.1,23.1,30.31,SSW,192,4.0,4.0,59,0.00,,,0.00,Wunderground v.1.15,2013-11-13 23:50:00,
2013-11-13 17:55:00,36.0,23.0,30.31,SW,223,4.0,5.0,59,0.00,,,0.00,Wunderground v.1.15,2013-11-13 23:55:00,
2013-11-13 18:05:00,36.1,23.5,30.31,SSW,210,3.0,4.0,60,0.00,,,0.00,Wunderground v.1.15,2013-11-14 00:05:00,
2013-11-13 18:10:00,36.1,23.5,30.30,SSW,204,4.0,4.0,60,0.00,,,0.00,Wunderground v.1.15,2013-11-14 00:10:00,
2013-11-13 18:20:00,36.0,23.8,30.30,SW,227,4.0,5.0,61,0.00,,,0.00,Wunderground v.1.15,2013-11-14 00:20:00,
2013-11-13 18:25:00,35.9,23.7,30.30,SSW,196,4.0,5.0,61,0.00,,,0.00,Wunderground v.1.15,2013-11-14 00:25:00,
2013-11-13 18:35:00,35.7,23.9,30.29,SSE,164,5.0,5.0,62,0.00,,,0.00,Wunderground v.1.15,2013-11-14 00:35:00,
2013-11-13 18:40:00,35.7,23.9,30.29,SSW,194,5.0,5.0,62,0.00,,,0.00,Wunderground v.1.15,2013-11-14 00:40:00,
2013-11-13 18:50:00,35.5,24.1,30.29,South,182,5.0,5.0,63,0.00,,,0.00,Wunderground v.1.15,2013-11-14 00:50:00,
2013-11-13 18:55:00,35.3,24.3,30.29,SSW,211,5.0,5.0,64,0.00,,,0.00,Wunderground v.1.15,2013-11-14 00:55:00,
2013-11-13 19:05:00,34.9,23.9,30.28,SW,223,5.0,5.0,64,0.00,,,0.00,Wunderground v.1.15,2013-11-14 01:05:00,
2013-11-13 19:10:00,34.8,24.2,30.28,WSW,238,5.0,5.0,65,0.00,,,0.00,Wunderground v.1.15,2013-11-14 01:10:00,
2013-11-13 19:20:00,34.4,23.8,30.28,SSW,211,4.0,4.0,65,0.00,,,0.00,Wunderground v.1.15,2013-11-14 01:20:00,
2013-11-13 19:30:00,34.2,24.0,30.28,SW,221,4.0,4.0,66,0.00,,,0.00,Wunderground v.1.15,2013-11-14 01:30:00,
2013-11-13 19:35:00,34.1,23.9,30.27,SSW,213,4.0,4.0,66,0.00,,,0.00,Wunderground v.1.15,2013-11-14 01:35:00,
2013-11-13 19:45:00,34.0,23.8,30.27,SW,232,4.0,7.0,66,0.00,,,0.00,Wunderground v.1.15,2013-11-14 01:45:00,
2013-11-13 19:50:00,34.1,23.9,30.27,WSW,242,4.0,4.0,66,0.00,,,0.00,Wunderground v.1.15,2013-11-14 01:50:00,
2013-11-13 20:00:00,34.1,23.9,30.27,SW,223,3.0,5.0,66,0.00,,,0.00,Wunderground v.1.15,2013-11-14 02:00:00,
2013-11-13 20:10:00,34.2,23.7,30.27,SW,219,4.0,5.0,65,0.00,,,0.00,Wunderground v.1.15,2013-11-14 02:10:00,
2013-11-13 20:15:00,34.2,23.7,30.27,SW,221,4.0,5.0,65,0.00,,,0.00,Wunderground v.1.15,2013-11-14 02:15:00,
2013-11-13 20:25:00,34.1,23.6,30.27,SW,215,4.0,6.0,65,0.00,,,0.00,Wunderground v.1.15,2013-11-14 02:25:00,
2013-11-13 20:30:00,34.0,23.8,30.27,SSW,194,4.0,4.0,66,0.00,,,0.00,Wunderground v.1.15,2013-11-14 02:30:00,
2013-11-13 20:40:00,33.8,23.6,30.26,SSW,206,3.0,3.0,66,0.00,,,0.00,Wunderground v.1.15,2013-11-14 02:40:00,
2013-11-13 20:50:00,33.7,23.2,30.26,SW,218,3.0,3.0,65,0.00,,,0.00,Wunderground v.1.15,2013-11-14 02:50:00,
2013-11-13 20:55:00,33.7,23.2,30.26,SW,225,3.0,3.0,65,0.00,,,0.00,Wunderground v.1.15,2013-11-14 02:55:00,
2013-11-13 21:05:00,33.7,23.2,30.26,SSW,213,3.0,4.0,65,0.00,,,0.00,Wunderground v.1.15,2013-11-14 03:05:00,
2013-11-13 21:10:00,33.6,23.1,30.26,SSW,206,3.0,3.0,65,0.00,,,0.00,Wunderground v.1.15,2013-11-14 03:10:00,
2013-11-13 21:20:00,33.4,23.3,30.25,South,185,2.0,4.0,66,0.00,,,0.00,Wunderground v.1.15,2013-11-14 03:20:00,
2013-11-13 21:25:00,33.4,23.3,30.25,SSW,211,3.0,4.0,66,0.00,,,0.00,Wunderground v.1.15,2013-11-14 03:25:00,
2013-11-13 21:35:00,33.3,23.5,30.25,SSW,211,2.0,4.0,67,0.00,,,0.00,Wunderground v.1.15,2013-11-14 03:35:00,
2013-11-13 21:40:00,33.1,23.3,30.25,SSW,206,2.0,2.0,67,0.00,,,0.00,Wunderground v.1.15,2013-11-14 03:40:00,
2013-11-13 21:50:00,33.0,23.2,30.24,SW,226,2.0,2.0,67,0.00,,,0.00,Wunderground v.1.15,2013-11-14 03:50:00,
2013-11-13 22:00:00,33.0,22.9,30.24,SW,215,3.0,3.0,66,0.00,,,0.00,Wunderground v.1.15,2013-11-14 04:00:00,
2013-11-13 22:05:00,33.1,23.0,30.24,SW,222,3.0,3.0,66,0.00,,,0.00,Wunderground v.1.15,2013-11-14 04:05:00,
2013-11-13 22:15:00,33.3,22.8,30.23,SSW,205,3.0,3.0,65,0.00,,,0.00,Wunderground v.1.15,2013-11-14 04:15:00,
2013-11-13 22:25:00,33.4,22.9,30.23,SSW,210,2.0,6.0,65,0.00,,,0.00,Wunderground v.1.15,2013-11-14 04:25:00,
2013-11-13 22:30:00,33.3,22.8,30.23,SW,221,2.0,2.0,65,0.00,,,0.00,Wunderground v.1.15,2013-11-14 04:30:00,
2013-11-13 22:40:00,33.0,22.9,30.23,SSW,211,1.0,1.0,66,0.00,,,0.00,Wunderground v.1.15,2013-11-14 04:40:00,
2013-11-13 22:50:00,33.0,22.9,30.22,SSW,196,2.0,2.0,66,0.00,,,0.00,Wunderground v.1.15,2013-11-14 04:50:00,
2013-11-13 22:55:00,33.0,22.9,30.22,SSE,154,2.0,2.0,66,0.00,,,0.00,Wunderground v.1.15,2013-11-14 04:55:00,
2013-11-13 23:05:00,32.9,23.1,30.22,SSE,154,1.0,1.0,67,0.00,,,0.00,Wunderground v.1.15,2013-11-14 05:05:00,
2013-11-13 23:10:00,32.8,23.0,30.21,SSE,155,0.0,1.0,67,0.00,,,0.00,Wunderground v.1.15,2013-11-14 05:10:00,
2013-11-13 23:15:00,32.8,22.7,30.21,SSE,155,1.0,1.0,66,0.00,,,0.00,Wunderground v.1.15,2013-11-14 05:15:00,
2013-11-13 23:20:00,32.8,22.7,30.21,SSW,213,1.0,6.0,66,0.00,,,0.00,Wunderground v.1.15,2013-11-14 05:20:00,
2013-11-13 23:30:00,33.6,22.7,30.20,SW,215,2.0,2.0,64,0.00,,,0.00,Wunderground v.1.15,2013-11-14 05:30:00,
2013-11-13 23:35:00,34.1,22.8,30.20,SW,223,3.0,3.0,63,0.00,,,0.00,Wunderground v.1.15,2013-11-14 05:35:00,
2013-11-13 23:45:00,35.0,22.9,30.20,SSW,211,4.0,4.0,61,0.00,,,0.00,Wunderground v.1.15,2013-11-14 05:45:00,
2013-11-13 23:50:00,35.3,22.8,30.20,SW,215,3.0,5.0,60,0.00,,,0.00,Wunderground v.1.15,2013-11-14 05:50:00,